This is the latest recevied weather packets stored in our database for station/object KE0PRS. If no packets are shown the sender has not sent any weather packets the latest 10 day(s).
| Time | Temp. | Humidity | Pressure | Rain* | Wind** | Luminosity | Snow |
|---|---|---|---|---|---|---|---|
| 1787961839 | 33.89° C | 37% | 1016.3 hPa | 0 mm | - | 75 W/m² | - |
| 1787961538 | 33.89° C | 37% | 1016.1 hPa | 0 mm | - | 86 W/m² | - |
| 1787961237 | 33.89° C | 36% | 1016.1 hPa | 0 mm | - | 89 W/m² | - |
| 1787960937 | 34.44° C | 35% | 1016.1 hPa | 0 mm | - | 97 W/m² | - |
| 1787960632 | 34.44° C | 36% | 1016.1 hPa | 0 mm | - | 111 W/m² | - |
| 1787960330 | 34.44° C | 35% | 1016.1 hPa | 0 mm | - | 123 W/m² | - |
| 1787960025 | 34.44° C | 34% | 1016.1 hPa | 0 mm | - | 135 W/m² | - |
| 1787959720 | 34.44° C | 35% | 1016.3 hPa | 0 mm | - | 152 W/m² | - |
| 1787959416 | 34.44° C | 34% | 1016.1 hPa | 0 mm | - | 174 W/m² | - |
| 1787959110 | 34.44° C | 34% | 1016.3 hPa | 0 mm | - | 189 W/m² | - |
| 1787958806 | 35° C | 34% | 1016.2 hPa | 0 mm | - | 206 W/m² | - |
| 1787958501 | 35° C | 33% | 1016.2 hPa | 0 mm | - | 225 W/m² | - |
| 1787958191 | 34.44° C | 34% | 1016.2 hPa | 0 mm | - | 242 W/m² | - |
| 1787957890 | 34.44° C | 33% | 1016.2 hPa | 0 mm | - | 261 W/m² | - |
| 1787957584 | 34.44° C | 34% | 1016.5 hPa | 0 mm | - | 282 W/m² | - |
| 1787957280 | 35° C | 35% | 1016.4 hPa | 0 mm | - | 299 W/m² | - |
| 1787956974 | 34.44° C | 35% | 1016.3 hPa | 0 mm | - | 313 W/m² | - |
| 1787956673 | 34.44° C | 35% | 1016.4 hPa | 0 mm | - | 336 W/m² | - |
| 1787956374 | 34.44° C | 35% | 1016.6 hPa | 0 mm | - | 350 W/m² | - |
| 1787956069 | 34.44° C | 34% | 1016.4 hPa | 0 mm | - | 369 W/m² | - |
| 1787955764 | 34.44° C | 34% | 1016.7 hPa | 0 mm | - | 382 W/m² | - |
| 1787955460 | 35° C | 35% | 1016.5 hPa | 0 mm | - | 400 W/m² | - |
| 1787955158 | 35° C | 35% | 1016.7 hPa | 0 mm | - | 411 W/m² | - |
| 1787954855 | 34.44° C | 34% | 1016.6 hPa | 0 mm | - | 430 W/m² | - |
| 1787954550 | 34.44° C | 35% | 1016.7 hPa | 0 mm | - | 444 W/m² | - |
* Rain latest hour (hover to see other rain measurements)
** Current wind speed in m/s (hover to see current wind gust speed)